Weather Roundup
Issued by NWS

Home | Current Version | Previous Version | Graphics & Text | Print | Product List | Glossary Off
Versions: 1 2 3 4 5 6 7 8 9 10 11 12 13 14 15 16 17 18 19 20 21 22 23 24 25 26 27 28 29 30 31 32 33 34 35 36 37 38 39 40 41 42 43 44 45 46 47 48 49 50

000
NZUS93 KARX 301010
HRRWXR

CURRENT HOURLY OBSERVATIONS ACROSS
MUCH OF THE UPPER MISSISSIPPI VALLEY
NATIONAL WEATHER SERVICE LA CROSSE WI
500 AM CDT THU JUL 30 2015


...SOUTHEAST MINNESOTA...


CITY           SKY/WX    TMP DP  RH WIND       PRES   REMARKS
ROCHESTER      CLEAR     60  55  83 W9        30.08S
ROCHESTER/MAYO FAIR      64  55  73 W10G18    30.06S
WINONA         CLEAR     61  55  82 CALM      30.03S
AUSTIN         CLEAR     66  55  68 W7        30.08S
ALBERT LEA     CLEAR     63  55  77 SW3       30.09R
DODGE CENTER   CLEAR     55  54  94 W7        30.07S
PRESTON        CLEAR     60  55  82 W9        30.08S
OWATONNA       CLEAR     61  55  82 SW5       30.07S
FARIBAULT      CLEAR     61  57  88 SW6       30.06S
$$

...ELSEWHERE IN MINNESOTA...


CITY           SKY/WX    TMP DP  RH WIND       PRES   REMARKS
MINNEAPOLIS    CLEAR     65  55  70 SW9       30.02R
INTNL FALLS    CLEAR     57  54  89 W7        29.88R
DULUTH         CLEAR     60  55  83 W12       29.92R
RED WING       CLEAR     63  55  77 W3        30.01S
REDWOOD FALLS  CLEAR     65  53  65 W9        30.06S
MANKATO        CLEAR     63  54  72 W9        30.07S
WORTHINGTON    CLEAR     61  52  72 SW9       30.13S
FAIRMONT       CLEAR     64  52  63 SW7       30.09S
$$

...SOUTHWEST WISCONSIN...


CITY           SKY/WX    TMP DP  RH WIND       PRES   REMARKS
LA CROSSE      CLEAR     69  55  60 W6        30.02S
PRAIRIE DU CHI CLEAR     64  56  77 NW5       30.06R
BOSCOBEL       CLEAR     62  58  86 SW7       30.05R
LONE ROCK      CLEAR     63  57  81 W3        30.04S
PLATTEVILLE    CLEAR     61  58  91 W7        30.07S
FORT MC COY    CLEAR     60  54  83 CALM      30.02S
CAMP DOUGLAS   CLEAR     60  58  94 W7        30.00R
VIROQUA        FAIR      60  57  90 W7        30.05S
WIS DELLS      CLEAR     62  54  76 SW6       30.02S
$$

...ELSEWHERE IN WISCONSIN...


CITY           SKY/WX    TMP DP  RH WIND       PRES   REMARKS
MILWAUKEE      CLEAR     68  54  60 W6        29.98S
MADISON        CLEAR     65  56  72 W6        30.01S
GREEN BAY      CLEAR     65  55  70 W8        29.92S
EAU CLAIRE     CLEAR     62  55  77 SW9       29.98S
BLACK RVR FLS  FAIR      52  52 100 CALM      30.00S
MEDFORD        CLEAR     59  55  86 W7        29.97S
WAUSAU         CLEAR     64  55  72 NW13      29.94R
WIS RAPIDS     CLEAR     63  53  70 W8        29.99S
MARSHFIELD     CLEAR     61  53  75 W7        29.98S
RICE LAKE      CLEAR     60  55  83 W5        29.99S
$$

...NORTHEAST IOWA...


CITY           SKY/WX    TMP DP  RH WIND       PRES   REMARKS
DECORAH        CLEAR     61  59  94 CALM      30.07S
MASON CITY     CLEAR     65  60  84 W10       30.12R
CHARLES CITY   CLEAR     61  59  94 W5        30.10S
OELWEIN          N/A     61  59  94 W6        30.10S
$$

...ELSEWHERE IN IOWA...


CITY           SKY/WX    TMP DP  RH WIND       PRES   REMARKS
DES MOINES     CLEAR     64  57  78 SW5       30.14R
IOWA CITY      CLEAR     63  59  87 NW7       30.12R
FORT DODGE     CLEAR     61  55  82 SW3       30.14S
$$

...NORTHERN ILLINOIS...


CITY           SKY/WX    TMP DP  RH WIND       PRES   REMARKS
CHICAGO-OHARE  CLEAR     68  58  70 W7        30.02S
CHICAGO-MIDWAY CLEAR     71  57  61 W8        30.03R
MOLINE         FAIR      63  58  83 SW5       30.09R
ROCKFORD       CLEAR     64  57  78 W3        30.06R
PEORIA         CLEAR     70  58  65 NW6       30.10S
$$

NOTE: "FAIR" INDICATES FEW OR NO CLOUDS BELOW 12,000 FEET WITH NO
SIGNIFICANT WEATHER AND/OR OBSTRUCTIONS TO VISIBILITY. WIND
SPEEDS ARE IN MILES-PER-HOUR.



USA.gov is the U.S. government's official web portal to all federal, state and local government web resources and services.